Regional Weather Roundup
Issued by NWS

Home | Current Version | Previous Version | Graphics & Text | Print | Product List | Glossary On
Versions: 1 2 3 4 5 6 7 8 9 10 11 12 13 14 15 16 17 18 19 20 21 22 23 24 25 26 27 28 29 30 31 32 33 34 35 36 37 38 39 40 41 42 43 44 45 46 47 48 49 50
551
ASUS44 KJAN 230110
RWRMS

MISSISSIPPI HOURLY WEATHER ROUNDUP
NATIONAL WEATHER SERVICE JACKSON MS
800 PM CDT MON SEP 22 2014

NOTE: "FAIR: INDICATES FEW OR NO CLOUDS BELOW 12,000 FEET WITH NO
SIGNIFICANT WEATHER AND/OR OBSTRUCTIONS TO VISIBILITY.

MSZ001>002-007>008-010>013-018>021-025>028-034>036-230200-
NORTHWEST MISSISSIPPI

CITY           SKY/WX    TMP DP  RH WIND       PRES   REMARKS
CLARKSDALE       N/A     64  55  72 N7        30.16R
CLEVELAND      FAIR      67  53  60 N6        30.13R
GREENWOOD      CLEAR     64  55  72 N7        30.12R
GREENVILLE     CLEAR     71  50  47 N12       30.12R
GRENADA        FAIR      63  55  77 N6        30.14R
OLIVE BRANCH   CLEAR     61  55  82 N7        30.18R
OXFORD         FAIR      63  54  72 NE3       30.17R
TUNICA         CLEAR     63  54  72 N7        30.17R
$$

MSZ003>006-009-014>017-022>024-029>033-037>039-230200-
NORTHEAST MISSISSIPPI

CITY           SKY/WX    TMP DP  RH WIND       PRES   REMARKS
COLUMBUS AFB   CLEAR     67  53  61 N5        30.12R
CORINTH          N/A     64  50  59 N3        30.16R
GOLDN TRIANGLE CLEAR     66  50  55 N5        30.12R
STARKVILLE     FAIR      66  54  63 CALM      30.12R
TUPELO         CLEAR     65  51  60 NE5       30.14R
$$

MSZ040-058-230200-
CENTRAL MISSISSIPPI

CITY           SKY/WX    TMP DP  RH WIND       PRES   REMARKS
JACKSON INTL   CLEAR     71  55  56 N8        30.09R
JACKSON HAWKNS CLEAR     74  52  46 N3        30.10R
MERIDIAN KEY   CLEAR     69  52  54 N8        30.08R
MERIDIAN NAS   CLEAR     70  51  51 NW6       30.09R
RAYMOND        FAIR      68  63  83 CALM      30.10R
VICKSBURG      CLEAR     69  54  58 NE7       30.09R
$$

MSZ059>079-230200-
SOUTH MISSISSIPPI

CITY           SKY/WX    TMP DP  RH WIND       PRES   REMARKS
BROOKHAVEN     FAIR      72  54  53 N6        30.09R
COLUMBIA       FAIR      70  55  60 N6        30.04S
HATTIESBURG    CLEAR     74  54  49 N5        30.05R
MCCOMB         CLEAR     73  54  51 N3        30.06R
NATCHEZ        CLEAR     70  55  60 N3        30.08S
PINE BELT      CLEAR    N/A N/A N/A MISG      30.07S
$$

MSZ080>082-230200-
COASTAL MISSISSIPPI

CITY           SKY/WX    TMP DP  RH WIND       PRES   REMARKS
BAY ST LOUIS   CLEAR     72  61  68 N5        30.02R
BILOXI         CLEAR     77  66  70 NE7       30.01R
PASCAGOULA     CLEAR     69  66  90 CALM      30.01R
GULFPORT       CLEAR     78  64  61 N7        30.00R
$$



USA.gov is the U.S. government's official web portal to all federal, state and local government web resources and services.